Location: Appingedam
(53.3222°N, 6.8488°E)
Time: 13:23:54
(UTC+00:00)

Cosmos 1461 - Pass Details

Date: 15 May 2026
Orbit: 422 x 475 km, 65.0° (Epoch: 11 June)

Event Time Altitude Azimuth Distance (km) Brightness Sun altitude
Rises 21:24:24 0° 234° (SW) 2,534 6.2 -12.8°
Reaches altitude 10° 21:26:34 10° 239° (WSW) 1,655 5.2 -13.0°
Maximum altitude 21:30:13 57° 319° (NW) 571 3.2 -13.2°
Drops below altitude 10° 21:33:50 10° 39° (NE) 1,645 5.6 -13.5°
Sets 21:36:00 0° 43° (NE) 2,517 6.5 -13.6°
